Tracking 19792 objects as of 16-Jul-2019
HD Live streaming from Space Station
objects crossing your sky now

CZ-4 DEB

Track CZ-4 DEB now!
10-day predictions


NORAD ID: 26351
Int'l Code: 1999-057JL
Perigee: 699.9 km
Apogee: 789.7 km
Inclination: 98.4 °
Period: 99.6 minutes
Semi major axis: 7115 km
RCS: 0.0689 m2 (small)
Launch date: October 14, 1999
Source: People's Republic of China (PRC)
Launch site: Taiyaun Space Center, China (TSC)

Note: This is SATELLITE DEBRIS
aabbcc
Your satellite tracking list
Your tracking list is empty




NASA's NSSDC Master Catalog

Two Line Element Set (TLE):
1 26351U 99057JL  19196.84649719 +.00000143 +00000-0 +51257-4 0  9993
2 26351 098.4108 151.2898 0063119 130.3653 230.3074 14.46319090018447
Source of the keplerian elements: AFSPC